IRIDIUM 33 DEB, 37562

Orbit data source: Space-Track

IRIDIUM 33 DEB, 37562 is space debris in LEO originally from a launch on Sun, 14 Sep 1997 UTC launched from the Tyuratam Missile And Space Complex (TTMTR). The debris from Iridium 33, an American commercial communications satellite, has been tracked extensively since its accidental collision with the defunct Russian satellite Cosmos 2251 in 2009. This event, occurring at high speed in low Earth orbit (LEO), generated thousands of pieces of space debris, significantly increasing the risk of further collisions. The Iridium 33 debris cloud has impacted space traffic management and orbital debris mitigation strategies, making it a subject of ongoing study in space situational awareness.

Loading next visibility...
Identifier
37562, 1997-051XX
Orbit
LEO
Country
Flag of USUS
Related business
Manufacturer
Unknown
Mission
Spacecraft
Bus & Motor
Unknown
Mass
Unknown
Launch date (UTC)
1997-09-14 (28 years ago)
Launch vehicle
Unknown
Launch site
Tyuratam Missile And Space Complex (TTMTR)
Object type
Payload
Rocket body
Debris
Shape & HBR
Unknown shape, 0.1 m
Radar Cross Section
Small (<0.1 m²)

Expand to show TLE details & history
Last TLE update: 3 days ago

TLE from 3 days ago
0 IRIDIUM 33 DEB
1 37562U 97051XX  25346.94061551  .00006916  00000-0  15437-2 0  9990
2 37562  86.3742  43.5127 0026707 107.2211  13.8680 14.56479735863311
Epoch: 2025-12-12T22:34Z
TLE epoch observation values (Epoch: 2025-12-12T22:34:29.180Z)
Latitude
58.74535°
Longitude
157.05551°
Altitude
696.229 km
Speed
7.523 km/s
True Right ascension
14h 30m 12s
True Declination
58° 35' 29"
Sunlit
Object was in daylight at epoch
Visualization orbit readout
Latitude
Unknown
Longitude
Unknown
Altitude
Unknown
Speed
Unknown
Apparent Right ascension
Unknown
Apparent Declination
Unknown
Sunlit
N/A
Visualization observer readout
Local Sidereal Time
13:23:47
Azimuth
Unknown
Elevation
Unknown
Doppler factor
Unknown
Orbital elements
Apogee altitude
720.405 km
Perigee altitude
682.589 km
Semi-major axis
7,079.634 km
Eccentricity
0.00267
Inclination
86.3742°
RAAN
43.5127°
Arg. of periapsis
107.2211°
True anomaly
13.94159°
Mean anomaly
13.868°
Eccentric anomaly
13.90477°
Mean motion
3.64357 °/min
Orbital period
98.8 mins
BSTAR
0.0015437
Loading maneuver chart data...
Computing Atmospheric mass density...

Documentation

Showing up to 5 results
|